[[{"header":{"parameterUnit":"m.s-1","parameterCategory":1,"la1":30.2991,"la2":30.254,"lo1":-89.0895,"lo2":-89.0444,"dy":0.0017,"dx":0.0017,"nx":28,"ny":28,"refTime":"2024-11-30T03:00:00:Z","depth":0,"parameterNumber":2,"parameterNumberName":"U-component_of_WINDS"},"data":[0,0,0,0,0,0,0,0,0,0,0,0,0,0,0,0,0,0,0,0,0,0,0,0,0,0,0,0,0,0,0,0,0,0,0,0,0,0,0,0,0,0,0,0,0,0,0,0,0,0,0,0,0,0,0,0,0,0,0.9199,0.9199,0,0.9181,0.9181,0.9181,0.9131,0.913,0.9129,0.9128,0.911,0.911,0.9111,0,0,0,0,0,0,0,0,0,0,0,0,0,0.9193,0.9193,0.9199,0.9199,0.9199,0.9181,0.9181,0.9181,0.9131,0.913,0.9129,0.9128,0.911,0.911,0.9111,0,0,0,0,0,0,0,0,0,0,0,0,0,0.9187,0.9193,0.9199,0.9172,0.9169,0.9181,0.9181,0.918,0.9132,0.913,0.9128,0.9127,0.9109,0.911,0.9111,0.9147,0,0,0.9113,0.9113,0,0,0,0,0,0,0,0,0.9188,0.9187,0.9176,0.9174,0.9171,0.9157,0.9172,0.9169,0.9132,0.9146,0.9128,0.9126,0.9127,0.9126,0.9126,0.9146,0.9146,0.9113,0.9114,0.9114,0.9114,0,0,0,0,0,0,0,0.9188,0.9188,0.9192,0.9176,0.9173,0.9161,0.9159,0.9171,0.9146,0.9145,0.9141,0.914,0.9125,0.9125,0.9125,0.9145,0.9113,0.9114,0.9114,0.9115,0.9197,0.9198,0,0,0,0,0,0,0.9192,0.9189,0.9193,0.9191,0.9176,0.9163,0.916,0.9163,0.9145,0.9141,0.9141,0.9137,0.9125,0.9124,0.9124,0.9166,0.9114,0.9115,0.9115,0.9195,0.9197,0.9199,0,0,0,0,0,0,0.9192,0.9193,0.9193,0.9189,0.9188,0.9164,0.9168,0.9163,0.9164,0.9142,0.9138,0.9146,0.9124,0.9123,0.9142,0.9165,0.9115,0.9116,0.9193,0.9196,0.9198,0.9251,0,0,0,0,0,0,0.9192,0.9193,0.9206,0.919,0.9189,0.9211,0.917,0.9164,0.9165,0.916,0.9146,0.9142,0.9122,0.9141,0.9143,0.9165,0.9116,0.9191,0.9194,0.9197,0.9247,0.9255,0.9262,0,0,0,0,0,0.9192,0.9222,0.9207,0.9208,0.9204,0.9213,0.9212,0.9189,0.9167,0.918,0.9167,0.9142,0.9163,0.9144,0.9145,0.9168,0.9189,0.9193,0.9197,0.9244,0.9253,0.9262,0,0,0,0,0,0,0.9241,0.9219,0.9203,0.9228,0.9223,0.9204,0.922,0.92,0.92,0.9195,0.9167,0.9164,0.9187,0.918,0.9159,0.9203,0.9172,0.9176,0.9207,0.9216,0.9223,0.9224,0.9117,0,0,0,0,0,0.9255,0.9263,0.9243,0.9267,0.9266,0.9244,0.9246,0.9229,0.9222,0.922,0.9208,0.9203,0.9208,0.9212,0.9215,0.9246,0.9243,0.9263,0.927,0.9276,0.928,0.9297,0.9306,0.9212,0.9212,0.9212,0,0,0.9283,0.9272,0.9279,0.9277,0.9271,0.9281,0.9242,0.9253,0.926,0.9222,0.9239,0.923,0.9223,0.9248,0.9259,0.9242,0.9306,0.9281,0.9286,0.9287,0.9302,0.9311,0.9319,0.9214,0.9214,0.9213,0,0,0.934,0.9332,0.9352,0.9347,0.9338,0.9324,0.9329,0.9314,0.9307,0.9324,0.9295,0.9304,0.9313,0.9309,0.9308,0.9366,0.9344,0.9368,0.9407,0.9423,0.9431,0.9437,0.9458,0.9466,0.9373,0.9373,0.9373,0,0.9376,0.9388,0.9364,0.9378,0.9378,0.9345,0.9365,0.9361,0.9354,0.9356,0.9338,0.935,0.9343,0.9367,0.9381,0.9382,0.9387,0.9369,0.9432,0.9438,0.9443,0.9463,0.9471,0.9376,0.9375,0.9375,0.9375,0,0.9434,0.9443,0.946,0.9455,0.9458,0.9474,0.9453,0.9459,0.9442,0.943,0.9449,0.9439,0.944,0.9445,0.9429,0.9468,0.9458,0.9437,0.9404,0.9456,0.9474,0.9481,0.938,0.9379,0.9378,0.9377,0,0,0.9518,0.9501,0.9507,0.9505,0.9495,0.9502,0.9518,0.952,0.9525,0.9523,0.9536,0.9546,0.9526,0.9525,0.9509,0.9523,0.957,0.95,0.9499,0.9513,0.9614,0.9629,0.9638,0.9556,0.9558,0.9559,0.9614,0,0.9571,0.9597,0.9576,0.9606,0.9615,0.9585,0.9599,0.9594,0.9584,0.9591,0.958,0.9587,0.9561,0.956,0.9574,0.9562,0.959,0.9558,0.9568,0.9569,0.957,0.9647,0.9664,0.9716,0.9621,0.9622,0.9623,0,0.9635,0.9636,0.9667,0.9656,0.9659,0.9672,0.9673,0.968,0.9675,0.9666,0.9667,0.9647,0.9662,0.9632,0.9654,0.9633,0.9636,0.9631,0.9633,0.9632,0.9598,0.9648,0.9733,0.974,0.9634,0.9633,0.9632,0,0.9694,0.9703,0.9722,0.9722,0.9709,0.9719,0.9714,0.9708,0.9711,0.9712,0.9714,0.9717,0.9719,0.9722,0.9704,0.9683,0.9728,0.9696,0.9722,0.9722,0.9731,0.9731,0.9817,0.9735,0.9735,0.9735,0.9735,0,0.9754,0.9774,0.9749,0.9761,0.9783,0.976,0.9783,0.9775,0.977,0.978,0.9755,0.9765,0.9741,0.9749,0.9736,0.9756,0.9757,0.9751,0.9747,0.9753,0.9753,0.9754,0.9749,0.9737,0.9737,0.9736,0.9736,0,0.9822,0.9806,0.9825,0.9813,0.981,0.9827,0.9816,0.9827,0.9816,0.983,0.9832,0.9815,0.9824,0.9806,0.9813,0.9803,0.9832,0.9823,0.9834,0.9831,0.9857,0.9855,0.9946,0.9956,0.9869,0.987,0.987,0,0.9861,0.9876,0.9865,0.9871,0.9868,0.9877,0.988,0.9859,0.9864,0.986,0.9872,0.9879,0.9883,0.9899,0.9887,0.9892,0.9882,0.9914,0.9883,0.9889,0.9882,0.9881,0.9883,0.992,0.9921,0.9922,0.9923,0,0.9932,0.9924,0.9929,0.9933,0.9938,0.9939,0.9939,0.9945,0.9923,0.993,0.9939,0.9942,0.995,0.9957,0.996,0.9956,0.9936,0.9933,0.9939,0.9944,0.995,0.9947,0.9851,0.993,0.993,0.9929,0.9929,0.9928,0.9987,0.9999,0.9994,1.0001,0.9999,1.0,1.001,1.0001,1.0008,1.0012,1.0,1.0012,1.0009,1.001,1.0009,1.0018,1.0004,1.0013,1.0015,1.0017,1.0022,0.995,1.0019,1.0019,1.0018,1.0018,1.0018,0,1.0056,1.0052,1.0059,1.006,1.0067,1.0048,1.0048,1.0054,1.0065,1.0064,1.0069,1.008,1.0087,1.0077,1.0083,1.0093,1.0084,1.0095,1.0094,1.0093,1.0034,1.0028,1.0102,1.0102,1.0102,1.0102,1.0102,1.0102,1.0093,1.0113,1.0104,1.0123,1.0119,1.0131,1.0132,1.0133,1.0132,1.0145,1.0152,1.0145,1.0141,1.0147,1.0153,1.015,1.0153,1.0167,1.0161,1.0106,1.0097,1.0089,1.0083,1.0168,1.0169,1.0219,1.022,1.022]},{"header":{"parameterUnit":"m.s-1","parameterCategory":1,"la1":30.2991,"la2":30.254,"lo1":-89.0895,"lo2":-89.0444,"dy":0.0017,"dx":0.0017,"nx":28,"ny":28,"refTime":"2024-11-30T03:00:00:Z","depth":0,"parameterNumber":3,"parameterNumberName":"V-component_of_WINDS"},"data":[0,0,0,0,0,0,0,0,0,0,0,0,0,0,0,0,0,0,0,0,0,0,0,0,0,0,0,0,0,0,0,0,0,0,0,0,0,0,0,0,0,0,0,0,0,0,0,0,0,0,0,0,0,0,0,0,0,0,-2.9305,-2.9306,0,-2.9377,-2.9378,-2.9379,-2.9395,-2.9395,-2.9394,-2.9394,-2.9465,-2.9467,-2.9469,0,0,0,0,0,0,0,0,0,0,0,0,0,-2.9177,-2.9179,-2.9305,-2.9306,-2.9307,-2.9377,-2.9378,-2.9379,-2.9396,-2.9395,-2.9394,-2.9394,-2.9464,-2.9467,-2.9469,0,0,0,0,0,0,0,0,0,0,0,0,0,-2.9239,-2.918,-2.9305,-2.9323,-2.9326,-2.9377,-2.9378,-2.9379,-2.9396,-2.9395,-2.9394,-2.9393,-2.9463,-2.9466,-2.947,-2.9506,0,0,-2.948,-2.9482,0,0,0,0,0,0,0,0,-2.9235,-2.9244,-2.932,-2.9322,-2.9325,-2.9377,-2.9359,-2.9422,-2.9396,-2.9369,-2.9394,-2.9393,-2.9436,-2.9441,-2.9456,-2.9509,-2.9513,-2.9481,-2.9483,-2.9484,-2.9485,0,0,0,0,0,0,0,-2.9231,-2.9241,-2.9333,-2.9321,-2.9324,-2.9327,-2.9335,-2.9371,-2.9405,-2.9371,-2.9373,-2.9381,-2.9437,-2.9453,-2.9458,-2.9514,-2.9481,-2.9484,-2.9486,-2.9487,-2.9598,-2.9599,0,0,0,0,0,0,-2.9224,-2.9237,-2.9331,-2.9336,-2.9278,-2.933,-2.9339,-2.9361,-2.9405,-2.9411,-2.9382,-2.9382,-2.9447,-2.9454,-2.9461,-2.9505,-2.9484,-2.9488,-2.949,-2.9597,-2.9598,-2.9599,0,0,0,0,0,0,-2.9221,-2.9232,-2.9328,-2.9287,-2.9299,-2.9333,-2.9357,-2.9363,-2.9379,-2.9413,-2.9419,-2.9392,-2.9447,-2.9456,-2.9495,-2.9508,-2.9489,-2.9492,-2.9596,-2.9598,-2.9599,-2.9595,0,0,0,0,0,0,-2.9217,-2.9231,-2.9246,-2.9287,-2.9301,-2.9362,-2.9358,-2.9365,-2.9385,-2.9386,-2.9424,-2.943,-2.9447,-2.9489,-2.9498,-2.9512,-2.9495,-2.9595,-2.9597,-2.9598,-2.9594,-2.9596,-2.9597,0,0,0,0,0,-2.9213,-2.9242,-2.9247,-2.9258,-2.9321,-2.9363,-2.9371,-2.9391,-2.9386,-2.9401,-2.9423,-2.9429,-2.9505,-2.9493,-2.9503,-2.9519,-2.9594,-2.9596,-2.9598,-2.9593,-2.9595,-2.9597,0,0,0,0,0,0,-2.9201,-2.9248,-2.9254,-2.9297,-2.9326,-2.9366,-2.9385,-2.9393,-2.9423,-2.9422,-2.9445,-2.9453,-2.949,-2.9508,-2.9494,-2.9555,-2.9549,-2.9553,-2.9542,-2.9544,-2.9546,-2.954,-2.9498,0,0,0,0,0,-2.9204,-2.9235,-2.9274,-2.9308,-2.9322,-2.9351,-2.937,-2.9383,-2.9413,-2.9425,-2.945,-2.9478,-2.9508,-2.9527,-2.9557,-2.9597,-2.9604,-2.9612,-2.9614,-2.9615,-2.9618,-2.9638,-2.9642,-2.9605,-2.9605,-2.9605,0,0,-2.9209,-2.9239,-2.9257,-2.9306,-2.933,-2.936,-2.9361,-2.9394,-2.9416,-2.943,-2.9468,-2.9487,-2.9519,-2.9558,-2.9577,-2.9575,-2.963,-2.9618,-2.9618,-2.962,-2.9641,-2.9644,-2.9647,-2.9607,-2.9607,-2.9606,0,0,-2.9235,-2.9261,-2.9292,-2.9315,-2.9352,-2.9371,-2.9378,-2.9416,-2.943,-2.9469,-2.9479,-2.9505,-2.9557,-2.958,-2.9598,-2.9631,-2.9636,-2.964,-2.9648,-2.9668,-2.9671,-2.9673,-2.9684,-2.9687,-2.9642,-2.9642,-2.9642,0,-2.9236,-2.9284,-2.9306,-2.9338,-2.9358,-2.9374,-2.9404,-2.9426,-2.9469,-2.9483,-2.948,-2.9545,-2.9568,-2.9611,-2.9619,-2.9634,-2.9642,-2.9635,-2.9669,-2.9672,-2.9674,-2.9684,-2.9688,-2.9642,-2.9642,-2.9642,-2.9642,0,-2.9283,-2.9316,-2.9336,-2.9379,-2.9402,-2.9433,-2.9458,-2.9479,-2.9489,-2.9508,-2.9546,-2.9575,-2.961,-2.9621,-2.9632,-2.9666,-2.9663,-2.9665,-2.9659,-2.9678,-2.9687,-2.9691,-2.9642,-2.9642,-2.9642,-2.9642,0,0,-2.9303,-2.9357,-2.9364,-2.9383,-2.9424,-2.9449,-2.9479,-2.9515,-2.9531,-2.9561,-2.9586,-2.9629,-2.963,-2.9651,-2.9664,-2.9682,-2.9704,-2.968,-2.9681,-2.9682,-2.9741,-2.9739,-2.9743,-2.9708,-2.9709,-2.971,-2.9738,0,-2.9332,-2.9389,-2.9409,-2.9455,-2.9484,-2.9499,-2.9525,-2.9552,-2.957,-2.9596,-2.9616,-2.9646,-2.9646,-2.9658,-2.9676,-2.9697,-2.9715,-2.9696,-2.973,-2.9731,-2.972,-2.9748,-2.9746,-2.9771,-2.9742,-2.9742,-2.9743,0,-2.9373,-2.9404,-2.9453,-2.9489,-2.9502,-2.9526,-2.9559,-2.9585,-2.9615,-2.9627,-2.9649,-2.9661,-2.9692,-2.9685,-2.9728,-2.9714,-2.9729,-2.9741,-2.9743,-2.9746,-2.9737,-2.9751,-2.978,-2.9783,-2.9749,-2.9749,-2.9748,0,-2.9381,-2.9434,-2.947,-2.9486,-2.9529,-2.9545,-2.9564,-2.9594,-2.9613,-2.9642,-2.9654,-2.9686,-2.9703,-2.9727,-2.9746,-2.974,-2.9786,-2.9781,-2.9795,-2.9794,-2.9803,-2.9802,-2.9834,-2.9815,-2.9815,-2.9815,-2.9815,0,-2.941,-2.9439,-2.9474,-2.9496,-2.9528,-2.9551,-2.9582,-2.9601,-2.9627,-2.9652,-2.9666,-2.9689,-2.9714,-2.974,-2.9755,-2.9787,-2.9794,-2.9804,-2.9807,-2.9802,-2.98,-2.9811,-2.9809,-2.9816,-2.9816,-2.9816,-2.9815,0,-2.9423,-2.9448,-2.9488,-2.9526,-2.9536,-2.9558,-2.959,-2.9611,-2.9629,-2.966,-2.9669,-2.9698,-2.9728,-2.9751,-2.979,-2.98,-2.9834,-2.9838,-2.9824,-2.9825,-2.9837,-2.9835,-2.9877,-2.9883,-2.986,-2.9861,-2.9861,0,-2.944,-2.9463,-2.9503,-2.9521,-2.954,-2.9569,-2.9589,-2.9612,-2.9632,-2.9668,-2.9684,-2.9716,-2.9742,-2.979,-2.9814,-2.9844,-2.9848,-2.986,-2.9852,-2.9846,-2.9847,-2.9844,-2.9846,-2.9861,-2.9861,-2.9861,-2.9861,0,-2.9466,-2.9477,-2.9506,-2.9539,-2.9563,-2.9589,-2.9616,-2.963,-2.9657,-2.9679,-2.9711,-2.9732,-2.9772,-2.9803,-2.9835,-2.9853,-2.9861,-2.9864,-2.9868,-2.9862,-2.9853,-2.9857,-2.9825,-2.9862,-2.9862,-2.9862,-2.9862,-2.9862,-2.9481,-2.9501,-2.9532,-2.9564,-2.9587,-2.9611,-2.9632,-2.9654,-2.9681,-2.9717,-2.9728,-2.9761,-2.9789,-2.9834,-2.9852,-2.9877,-2.9876,-2.9883,-2.9884,-2.9885,-2.9884,-2.985,-2.9883,-2.9883,-2.9883,-2.9883,-2.9883,0,-2.9506,-2.9527,-2.9556,-2.9593,-2.9618,-2.9625,-2.9655,-2.9674,-2.9703,-2.9729,-2.9755,-2.9791,-2.9821,-2.9847,-2.9878,-2.9893,-2.9897,-2.99,-2.9898,-2.9902,-2.9884,-2.9876,-2.9896,-2.9896,-2.9896,-2.9896,-2.9896,-2.9896,-2.9522,-2.9557,-2.9571,-2.9616,-2.9637,-2.967,-2.9686,-2.9708,-2.9729,-2.9769,-2.9794,-2.9812,-2.9837,-2.987,-2.9897,-2.9904,-2.9914,-2.9915,-2.9923,-2.9905,-2.9903,-2.9902,-2.9895,-2.9918,-2.9918,-2.9939,-2.9939,-2.9939]}]]